Location: Seattle
(47.6064°N, 122.3308°W)
Time: 05:43:14
(UTC-08:00)

S-56A Canister/Altair - Pass Details

Date: 29 November 2020
Orbit: 633 x 2499 km, 38.9° (Epoch: 23 January)

Event Time Altitude Azimuth Distance (km) Brightness Sun altitude
Rises 21:07:23 0° 252° (WSW) 5,342 12.3 -47.2°
Reaches altitude 10° 21:11:30 10° 248° (WSW) 4,053 11.5 -47.8°
Enters shadow 21:15:37 24° 237° (WSW) 2,786 10.4 -48.5°
Maximum altitude 21:20:54 46° 180° (S) 1,678 - -49.3°
Drops below altitude 10° 21:27:14 10° 109° (ESE) 2,747 - -50.2°
Sets 21:29:31 0° 103° (ESE) 3,508 - -50.6°
